This demonstration page uses our WeatherBlox Daily Observations layout. Learn more.

41.55636, -103.73856

Hourly Observations for October 28, 2016

Temp ( °F °C ) Dew Point ( °F °C ) Humidity (%) Winds ( mph kmh ) Pressure ( in mb ) Visibility ( mi km ) Precip ( " mm )
12:53 am 00:53 Clear 55 12.8 28 -2.2 35 35 NNW 7 11 29.83 1010 10 16.0934 0 0
1:53 am 01:53 Clear 57 13.9 27 -2.8 32 32 NW 6 9 29.82 1010 10 16.0934 0 0
2:53 am 02:53 Clear 56 13.3 27 -2.8 33 33 NW 5 7 29.82 1010 10 16.0934 0 0
3:53 am 03:53 Clear 51 10.6 29 -1.7 43 43 NW 7 11 29.82 1010 10 16.0934 0 0
4:53 am 04:53 Clear 50 10 30 -1.1 46 46 NNW 9 15 29.83 1010 10 16.0934 0 0
5:53 am 05:53 Clear 53 11.7 32 0 45 45 NW 3 6 29.84 1010 10 16.0934 0 0
6:53 am 06:53 Clear 48 8.9 32 0 54 54 ENE 7 11 29.89 1012 10 16.0934 0 0
7:53 am 07:53 Sunny 56 13.3 34 1.1 44 44 NW 5 7 29.87 1011 10 16.0934 0 0
8:53 am 08:53 Sunny 57 13.9 37 2.8 47 47 NNW 7 11 29.88 1012 10 16.0934 0 0
9:53 am 09:53 Sunny 67 19.4 41 5 39 39 NW 8 13 29.85 1011 10 16.0934 0 0
10:53 am 10:53 Sunny 73 22.8 40 4.4 30 30 WNW 9 15 29.86 1011 10 16.0934 0 0
11:53 am 11:53 Sunny 72 22.2 40 4.4 31 31 W 12 19 29.85 1011 10 16.0934 0 0
12:53 pm 12:53 Sunny 74 23.3 40 4.4 29 29 W 9 15 29.83 1010 10 16.0934 0 0
1:53 pm 13:53 Sunny 75 23.9 40 4.4 28 28 W 8 13 29.81 1010 10 16.0934 0 0
2:53 pm 14:53 Sunny 79 26.1 40 4.4 25 25 W 6 9 29.78 1008 10 16.0934 0 0
3:53 pm 15:53 Sunny 77 25 38 3.3 24 24 W 7 11 29.81 1009 10 16.0934 0 0
4:53 pm 16:53 Sunny 76 24.4 41 5 29 29 Calm 29.81 1010 10 16.0934 0 0
5:53 pm 17:53 Sunny 64 17.8 40 4.4 41 41 NNE 7 11 29.85 1011 10 16.0934 0 0
6:53 pm 18:53 Clear 60 15.6 40 4.4 47 47 E 6 9 29.89 1012 10 16.0934 0 0
7:53 pm 19:53 Clear 60 15.6 40 4.4 47 47 SE 8 13 29.86 1011 10 16.0934 0 0
8:53 pm 20:53 Clear 56 13.3 40 4.4 55 55 ENE 6 9 29.88 1012 10 16.0934 0 0
9:53 pm 21:53 Mostly Cloudy 57 13.9 40 4.4 53 53 VRB 6 9 29.87 1011 10 16.0934 0 0
10:19 pm 22:19 Mostly Clear 62 16.7 41 5 46 46 ESE 12 19 29.8 1009 10 16.0934 0 0
10:53 pm 22:53 Clear 63 17.2 40 4.4 43 43 ENE 10 17 29.81 1009 10 16.0934 0 0
11:53 pm 23:53 Clear 55 12.8 40 4.4 57 57 E 6 9 29.83 1010 10 16.0934 0 0

Powered by AerisWeather